Fayetteville Regional Grannis Field Fayetteville US
ICAO: KFAY
IATA: FAY
Category: Medium
Scheduled Services: Yes

Elevation: 189 ft
TransAlt. 18000 ft.

Airport Communications:
APP/DEP:125.175
ATIS:121.25
GND:121.7
RALEIGH RDO:25.54
TWR:118.3
UNICOM:122.95

KFAY Zoom In..

If you have problems with the map follow the link
https://www.worldairports.se/pages/airport.php?
ICAO=KFAY

Runways:

(A) RW 04 length 7709 ft width 150 ft
ILS 110.50 / hdg 38

(B) RW 10 length 4801 ft width 150 ft
---- / hdg 98

(C) RW 22 length 7709 ft width 150 ft
---- / hdg 218

(D) RW 28 length 4801 ft width 150 ft
---- / hdg 278

Location; KFAY
Day. 22 / Time. 10.53 Zulu
* Altimeter: 30.39
* Temperature: -02° c. -28.4°f.
* Wind from: 010° Speed 12 kn.
Dewpoint: -09° c.
Visibility: 10 Statute Miles.
Clouds: Clear (automated report).

KFAY 221053Z 01012KT 10SM CLR M02/M09 A3039 RMK AO2 SLP289 T10221094


Wind From 010°
Speed 12 kn.

 
 
jpsmedia worldairports.se 2020   terms of use